This is the latest recevied weather packets stored in our database for station/object K7FLA. If no packets are shown the sender has not sent any weather packets the latest 10 day(s).
| Time | Temp. | Humidity | Pressure | Rain* | Wind** | Luminosity | Snow |
|---|---|---|---|---|---|---|---|
| 1787867134 | 37.22° C | 25% | 1094.7 hPa | 0 mm | - | 199 W/m² | - |
| 1787866829 | 37.22° C | 25% | 1094.8 hPa | 0 mm | - | 202 W/m² | - |
| 1787866524 | 37.78° C | 25% | 1094.9 hPa | 0 mm | - | 200 W/m² | - |
| 1787866222 | 37.78° C | 24% | 1094.8 hPa | 0 mm | - | 207 W/m² | - |
| 1787865918 | 38.33° C | 24% | 1094.7 hPa | 0 mm | - | 226 W/m² | - |
| 1787865613 | 38.33° C | 23% | 1094.8 hPa | 0 mm | - | 269 W/m² | - |
| 1787865313 | 38.33° C | 24% | 1094.9 hPa | 0 mm | - | 333 W/m² | - |
| 1787865009 | 38.33° C | 21% | 1094.7 hPa | 0 mm | - | 342 W/m² | - |
| 1787864704 | 38.33° C | 22% | 1095 hPa | 0 mm | - | 398 W/m² | - |
| 1787864403 | 38.33° C | 21% | 1094.9 hPa | 0 mm | - | 387 W/m² | - |
| 1787864099 | 38.33° C | 22% | 1095 hPa | 0 mm | - | 423 W/m² | - |
| 1787863796 | 38.33° C | 21% | 1095.1 hPa | 0 mm | - | 390 W/m² | - |
| 1787863495 | 38.33° C | 21% | 1095.2 hPa | 0 mm | - | 337 W/m² | - |
| 1787863193 | 38.89° C | 21% | 1095.2 hPa | 0 mm | - | 306 W/m² | - |
| 1787862887 | 38.89° C | 21% | 1095.3 hPa | 0 mm | - | 320 W/m² | - |
| 1787862586 | 38.89° C | 21% | 1095.4 hPa | 0 mm | - | 342 W/m² | - |
| 1787862282 | 39.44° C | 20% | 1095.2 hPa | 0 mm | - | 384 W/m² | - |
| 1787861983 | 40° C | 22% | 1095.3 hPa | 0 mm | - | 401 W/m² | - |
| 1787861683 | 40° C | 21% | 1095.2 hPa | 0 mm | - | 470 W/m² | - |
| 1787861381 | 40° C | 22% | 1095.3 hPa | 0 mm | - | 600 W/m² | - |
| 1787861076 | 40° C | 22% | 1095.4 hPa | 0 mm | - | 639 W/m² | - |
| 1787860774 | 39.44° C | 21% | 1095.3 hPa | 0 mm | - | 758 W/m² | - |
| 1787860470 | 39.44° C | 20% | 1095.5 hPa | 0 mm | - | 461 W/m² | - |
| 1787860170 | 40° C | 21% | 1095.4 hPa | 0 mm | - | 389 W/m² | - |
| 1787859866 | 40° C | 22% | 1095.4 hPa | 0 mm | - | 632 W/m² | - |
* Rain latest hour (hover to see other rain measurements)
** Current wind speed in m/s (hover to see current wind gust speed)